Time,TemperatureF,DewpointF,PressureIn,WindDirection,WindDirectionDegrees,WindSpeedMPH,WindSpeedGustMPH,Humidity,HourlyPrecipIn,Conditions,Clouds,dailyrainin,SoftwareType,DateUTC
2013-03-07 00:23:00,39.0,-99.9,29.92,North,11,9.0,15.0,-999,-99.99,,,-99.99,,2013-03-07 05:23:00,
2013-03-07 00:32:00,39.0,-99.9,29.92,North,11,9.0,15.0,-999,-99.99,,,-99.99,,2013-03-07 05:32:00,
2013-03-07 00:42:00,39.0,-99.9,29.92,North,11,9.0,15.0,-999,-99.99,,,-99.99,,2013-03-07 05:42:00,
2013-03-07 00:52:00,39.0,-99.9,29.91,NE,47,7.0,19.0,-999,-99.99,,,-99.99,,2013-03-07 05:52:00,
2013-03-07 01:22:00,39.0,-99.9,29.91,NE,47,7.0,19.0,-999,-99.99,,,-99.99,,2013-03-07 06:22:00,
2013-03-07 01:32:00,39.0,-99.9,29.91,NE,47,7.0,19.0,-999,-99.99,,,-99.99,,2013-03-07 06:32:00,
2013-03-07 01:42:00,39.0,-99.9,29.91,NE,47,7.0,19.0,-999,-99.99,,,-99.99,,2013-03-07 06:42:00,
2013-03-07 01:52:00,39.0,-99.9,29.92,NNE,23,10.0,14.0,-999,-99.99,,,-99.99,,2013-03-07 06:52:00,
2013-03-07 02:22:00,39.0,-99.9,29.92,NNE,23,10.0,14.0,-999,-99.99,,,-99.99,,2013-03-07 07:22:00,
2013-03-07 02:32:00,39.0,-99.9,29.92,NNE,23,10.0,14.0,-999,-99.99,,,-99.99,,2013-03-07 07:32:00,
2013-03-07 02:43:00,39.0,-99.9,29.92,NNE,23,10.0,14.0,-999,-99.99,,,-99.99,,2013-03-07 07:43:00,
2013-03-07 02:52:00,38.0,-99.9,29.90,NNW,346,6.0,14.0,-999,-99.99,,,-99.99,,2013-03-07 07:52:00,
2013-03-07 03:23:00,38.0,-99.9,29.90,NNW,346,6.0,14.0,-999,-99.99,,,-99.99,,2013-03-07 08:23:00,
2013-03-07 03:34:00,38.0,-99.9,29.90,NNW,346,6.0,14.0,-999,-99.99,,,-99.99,,2013-03-07 08:34:00,
2013-03-07 03:45:00,38.0,-99.9,29.90,NNW,346,6.0,14.0,-999,-99.99,,,-99.99,,2013-03-07 08:45:00,
2013-03-07 03:52:00,37.0,-99.9,29.92,North,10,4.0,16.0,-999,-99.99,,,-99.99,,2013-03-07 08:52:00,
2013-03-07 04:24:00,37.0,-99.9,29.92,North,10,4.0,16.0,-999,-99.99,,,-99.99,,2013-03-07 09:24:00,
2013-03-07 04:33:00,37.0,-99.9,29.92,North,10,4.0,16.0,-999,-99.99,,,-99.99,,2013-03-07 09:33:00,
2013-03-07 04:43:00,37.0,-99.9,29.92,North,10,4.0,16.0,-999,-99.99,,,-99.99,,2013-03-07 09:43:00,
2013-03-07 04:52:00,38.0,-99.9,29.95,NNW,346,16.0,16.0,-999,-99.99,,,-99.99,,2013-03-07 09:52:00,
2013-03-07 05:24:00,38.0,-99.9,29.95,NNW,346,16.0,16.0,-999,-99.99,,,-99.99,,2013-03-07 10:24:00,
2013-03-07 05:43:00,38.0,-99.9,29.95,NNW,346,16.0,16.0,-999,-99.99,,,-99.99,,2013-03-07 10:43:00,
2013-03-07 05:52:00,35.0,-99.9,29.96,North,351,9.0,15.0,-999,-99.99,,,-99.99,,2013-03-07 10:52:00,
2013-03-07 06:34:00,35.0,-99.9,29.96,North,351,9.0,15.0,-999,-99.99,,,-99.99,,2013-03-07 11:34:00,
2013-03-07 06:44:00,35.0,-99.9,29.96,North,351,9.0,15.0,-999,-99.99,,,-99.99,,2013-03-07 11:44:00,
2013-03-07 06:52:00,36.0,-99.9,29.97,North,352,18.0,18.0,-999,-99.99,,,-99.99,,2013-03-07 11:52:00,
2013-03-07 07:23:00,36.0,-99.9,29.97,North,352,18.0,18.0,-999,-99.99,,,-99.99,,2013-03-07 12:23:00,
2013-03-07 07:34:00,36.0,-99.9,29.97,North,352,18.0,18.0,-999,-99.99,,,-99.99,,2013-03-07 12:34:00,
2013-03-07 07:43:00,36.0,-99.9,29.97,North,352,18.0,18.0,-999,-99.99,,,-99.99,,2013-03-07 12:43:00,
2013-03-07 07:52:00,36.0,-99.9,29.98,NNW,342,7.0,18.0,-999,-99.99,,,-99.99,,2013-03-07 12:52:00,
2013-03-07 08:23:00,36.0,-99.9,29.98,NNW,342,7.0,18.0,-999,-99.99,,,-99.99,,2013-03-07 13:23:00,
2013-03-07 08:33:00,36.0,-99.9,29.98,NNW,342,7.0,18.0,-999,-99.99,,,-99.99,,2013-03-07 13:33:00,
2013-03-07 08:43:00,36.0,-99.9,29.98,NNW,342,7.0,18.0,-999,-99.99,,,-99.99,,2013-03-07 13:43:00,
2013-03-07 08:52:00,35.0,-99.9,29.99,NE,40,6.0,16.0,-999,-99.99,,,-99.99,,2013-03-07 13:52:00,
2013-03-07 09:23:00,35.0,-99.9,29.99,NE,40,6.0,16.0,-999,-99.99,,,-99.99,,2013-03-07 14:23:00,
2013-03-07 09:34:00,35.0,-99.9,29.99,NE,40,6.0,16.0,-999,-99.99,,,-99.99,,2013-03-07 14:34:00,
2013-03-07 09:43:00,35.0,-99.9,29.99,NE,40,6.0,16.0,-999,-99.99,,,-99.99,,2013-03-07 14:43:00,
2013-03-07 09:52:00,39.0,-99.9,30.00,North,3,9.0,17.0,-999,-99.99,,,-99.99,,2013-03-07 14:52:00,
2013-03-07 10:33:00,39.0,-99.9,30.00,North,3,9.0,17.0,-999,-99.99,,,-99.99,,2013-03-07 15:33:00,
2013-03-07 10:43:00,39.0,-99.9,30.00,North,3,9.0,17.0,-999,-99.99,,,-99.99,,2013-03-07 15:43:00,
2013-03-07 10:52:00,39.0,-99.9,29.99,NNE,17,5.0,17.0,-999,-99.99,,,-99.99,,2013-03-07 15:52:00,
2013-03-07 11:24:00,39.0,-99.9,29.99,NNE,17,5.0,17.0,-999,-99.99,,,-99.99,,2013-03-07 16:24:00,
2013-03-07 11:33:00,39.0,-99.9,29.99,NNE,17,5.0,17.0,-999,-99.99,,,-99.99,,2013-03-07 16:33:00,
2013-03-07 11:43:00,39.0,-99.9,29.99,NNE,17,5.0,17.0,-999,-99.99,,,-99.99,,2013-03-07 16:43:00,
2013-03-07 11:52:00,40.0,-99.9,30.00,NE,47,7.0,19.0,-999,-99.99,,,-99.99,,2013-03-07 16:52:00,
2013-03-07 12:34:00,40.0,-99.9,30.00,NE,47,7.0,19.0,-999,-99.99,,,-99.99,,2013-03-07 17:34:00,
2013-03-07 12:44:00,40.0,-99.9,30.00,NE,47,7.0,19.0,-999,-99.99,,,-99.99,,2013-03-07 17:44:00,
2013-03-07 12:52:00,39.0,-99.9,29.99,NW,315,6.0,20.0,-999,-99.99,,,-99.99,,2013-03-07 17:52:00,
2013-03-07 13:22:00,39.0,-99.9,29.99,NW,315,6.0,20.0,-999,-99.99,,,-99.99,,2013-03-07 18:22:00,
2013-03-07 13:33:00,39.0,-99.9,29.99,NW,315,6.0,20.0,-999,-99.99,,,-99.99,,2013-03-07 18:33:00,
2013-03-07 13:43:00,39.0,-99.9,29.99,NW,315,6.0,20.0,-999,-99.99,,,-99.99,,2013-03-07 18:43:00,
2013-03-07 13:52:00,39.0,-99.9,30.00,NW,309,9.0,18.0,-999,-99.99,,,-99.99,,2013-03-07 18:52:00,
2013-03-07 14:24:00,39.0,-99.9,30.00,NW,309,9.0,18.0,-999,-99.99,,,-99.99,,2013-03-07 19:24:00,
2013-03-07 14:35:00,39.0,-99.9,30.00,NW,309,9.0,18.0,-999,-99.99,,,-99.99,,2013-03-07 19:35:00,
2013-03-07 14:44:00,39.0,-99.9,30.00,NW,309,9.0,18.0,-999,-99.99,,,-99.99,,2013-03-07 19:44:00,
2013-03-07 14:52:00,38.0,-99.9,30.01,NNW,336,-999.0,11.0,-999,-99.99,,,-99.99,,2013-03-07 19:52:00,
2013-03-07 15:23:00,38.0,-99.9,30.01,NNW,336,-999.0,11.0,-999,-99.99,,,-99.99,,2013-03-07 20:23:00,
2013-03-07 15:34:00,38.0,-99.9,30.01,NNW,336,-999.0,11.0,-999,-99.99,,,-99.99,,2013-03-07 20:34:00,
2013-03-07 15:43:00,38.0,-99.9,30.01,NNW,336,-999.0,11.0,-999,-99.99,,,-99.99,,2013-03-07 20:43:00,
2013-03-07 15:52:00,37.0,-99.9,30.03,WNW,302,9.0,12.0,-999,-99.99,,,-99.99,,2013-03-07 20:52:00,
2013-03-07 16:33:00,37.0,-99.9,30.03,WNW,302,9.0,12.0,-999,-99.99,,,-99.99,,2013-03-07 21:33:00,
2013-03-07 16:43:00,37.0,-99.9,30.03,WNW,302,9.0,12.0,-999,-99.99,,,-99.99,,2013-03-07 21:43:00,
2013-03-07 16:52:00,36.0,-99.9,30.03,North,-999,-999.0,9.0,-999,-99.99,,,-99.99,,2013-03-07 21:52:00,
2013-03-07 17:23:00,36.0,-99.9,30.03,North,-999,-999.0,9.0,-999,-99.99,,,-99.99,,2013-03-07 22:23:00,
2013-03-07 17:33:00,36.0,-99.9,30.03,North,-999,-999.0,9.0,-999,-99.99,,,-99.99,,2013-03-07 22:33:00,
2013-03-07 17:44:00,36.0,-99.9,30.03,North,-999,-999.0,9.0,-999,-99.99,,,-99.99,,2013-03-07 22:44:00,
2013-03-07 17:52:00,34.0,-99.9,30.05,North,358,-999.0,6.0,-999,-99.99,,,-99.99,,2013-03-07 22:52:00,
2013-03-07 18:22:00,34.0,-99.9,30.05,North,358,-999.0,6.0,-999,-99.99,,,-99.99,,2013-03-07 23:22:00,
2013-03-07 18:35:00,34.0,-99.9,30.05,North,358,-999.0,6.0,-999,-99.99,,,-99.99,,2013-03-07 23:35:00,
2013-03-07 18:44:00,34.0,-99.9,30.05,North,358,-999.0,6.0,-999,-99.99,,,-99.99,,2013-03-07 23:44:00,
2013-03-07 18:52:00,34.0,-99.9,30.05,NW,322,-999.0,-999.0,-999,-99.99,,,-99.99,,2013-03-07 23:52:00,
2013-03-07 19:23:00,34.0,-99.9,30.05,NW,322,-999.0,-999.0,-999,-99.99,,,-99.99,,2013-03-08 00:23:00,
2013-03-07 19:35:00,34.0,-99.9,30.05,NW,322,-999.0,-999.0,-999,-99.99,,,-99.99,,2013-03-08 00:35:00,
2013-03-07 19:44:00,34.0,-99.9,30.05,NW,322,-999.0,-999.0,-999,-99.99,,,-99.99,,2013-03-08 00:44:00,
2013-03-07 19:52:00,34.0,-99.9,30.05,NNW,329,-999.0,8.0,-999,-99.99,,,-99.99,,2013-03-08 00:52:00,
2013-03-07 20:22:00,34.0,-99.9,30.05,NNW,329,-999.0,8.0,-999,-99.99,,,-99.99,,2013-03-08 01:22:00,
2013-03-07 20:33:00,34.0,-99.9,30.05,NNW,329,-999.0,8.0,-999,-99.99,,,-99.99,,2013-03-08 01:33:00,
2013-03-07 20:42:00,34.0,-99.9,30.05,NNW,329,-999.0,8.0,-999,-99.99,,,-99.99,,2013-03-08 01:42:00,
2013-03-07 20:52:00,34.0,-99.9,30.04,NNW,334,6.0,-999.0,-999,-99.99,,,-99.99,,2013-03-08 01:52:00,
2013-03-07 21:22:00,34.0,-99.9,30.04,NNW,334,6.0,-999.0,-999,-99.99,,,-99.99,,2013-03-08 02:22:00,
2013-03-07 21:32:00,34.0,-99.9,30.04,NNW,334,6.0,-999.0,-999,-99.99,,,-99.99,,2013-03-08 02:32:00,
2013-03-07 21:42:00,34.0,-99.9,30.04,NNW,334,6.0,-999.0,-999,-99.99,,,-99.99,,2013-03-08 02:42:00,
2013-03-07 21:52:00,34.0,-99.9,30.03,North,355,-999.0,-999.0,-999,-99.99,,,-99.99,,2013-03-08 02:52:00,
2013-03-07 22:23:00,34.0,-99.9,30.03,North,355,-999.0,-999.0,-999,-99.99,,,-99.99,,2013-03-08 03:23:00,
2013-03-07 22:33:00,34.0,-99.9,30.03,North,355,-999.0,-999.0,-999,-99.99,,,-99.99,,2013-03-08 03:33:00,
2013-03-07 22:43:00,34.0,-99.9,30.03,North,355,-999.0,-999.0,-999,-99.99,,,-99.99,,2013-03-08 03:43:00,
2013-03-07 22:52:00,32.0,-99.9,30.03,North,355,-999.0,-999.0,-999,-99.99,,,-99.99,,2013-03-08 03:52:00,
2013-03-07 23:32:00,32.0,-99.9,30.03,North,355,-999.0,-999.0,-999,-99.99,,,-99.99,,2013-03-08 04:32:00,
2013-03-07 23:42:00,32.0,-99.9,30.03,North,355,-999.0,-999.0,-999,-99.99,,,-99.99,,2013-03-08 04:42:00,
2013-03-07 23:52:00,32.0,-99.9,30.03,North,-999,-999.0,-999.0,-999,-99.99,,,-99.99,,2013-03-08 04:52:00,